Weather in Pershotravnevoe

Ukraine / Mykolaiv District     46°56′54″N   32°36′27″E
temp.,
°C
wind,
m/s
gust,
m/s
humid.,
%
clouds,
%
prec.,
mm/h
press.,
hPa
HPBL,
m
25 february, thu
thu2523:00−2ssw357794 0.0 1036186
02:00−1ssw357195 0.0 1035248
05:00−1ssw4679100 0.1 1034283
08:00+1ssw5883100 0.1 1033305
11:00+2sw4790100 0.0 1033285
14:00+4sw3590100 0.0 1032267
17:00+4wsw229388 0.0 103026
20:00+4wsw339794 0.1 103059
26 february, fri
fri2623:00+4wsw3699100 0.1 1030148
02:00+5w3699100 0.2 1030151
05:00+3wnw349749 0.0 102866
08:00+4w359740 0.0 1028205
11:00+8w468881 0.0 1027428
14:00+12wsw587381 0.0 1025597
17:00+9sw58801 0.0 1022251
20:00+6wsw35920 0.0 1022109
27 february, sat
sat2723:00+5wnw23951 0.0 102127
02:00+4nw34989 0.0 1020133
05:00+5nw249896 0.0 1018127
08:00+5wnw379798 0.0 1017312
11:00+6nw6982100 0.1 1017709
14:00+7nw7966100 0.1 10171111
17:00+5nw6964100 0.0 10161104
20:00+4nw61181100 0.1 1017716
28 february, sun
sun2823:00+3nw6108595 0.1 1017705
02:00+3nw6108298 0.1 1018791
05:00+2nnw6109092 0.1 1019692
08:00+1nnw6108788 0.1 1021782
11:00+4nnw796567 0.0 10221109
14:00+4nnw686284 0.1 10231227
17:00+3nnw5871100 0.0 1024985
20:00+2nnw488099 0.1 1026538
1 march, mon
mon123:00+1nnw488396 0.1 1027457
02:00+1nnw478898 0.1 1027372
05:000nnw479199 0.1 1028311
08:000n468691 0.1 1029346
11:00+4nne456246 0.1 10301064
14:00+4nne455873 0.2 10301179
17:00+4nne4562100 0.1 10311096
20:00+2nne3668100 0.1 1033295